TimeMST,TemperatureF,Dew PointF,Humidity,Sea Level PressureIn,VisibilityMPH,Wind Direction,Wind SpeedMPH,Gust SpeedMPH,PrecipitationIn,Events,Conditions,WindDirDegrees,DateUTC
10:15 AM,32.0,12.2,44,29.86,10.0,South,19.6,27.6,N/A,,Clear,180,2013-11-15 17:15:00
10:35 AM,32.0,10.4,41,29.85,10.0,South,24.2,29.9,N/A,,Scattered Clouds,170,2013-11-15 17:35:00
10:55 AM,30.2,8.6,40,29.85,10.0,South,18.4,32.2,N/A,,Scattered Clouds,180,2013-11-15 17:55:00
11:15 AM,32.0,10.4,41,29.84,10.0,SSW,12.7,26.5,N/A,,Mostly Cloudy,210,2013-11-15 18:15:00
11:35 AM,32.0,8.6,38,29.82,10.0,South,24.2,32.2,N/A,,Mostly Cloudy,180,2013-11-15 18:35:00
11:55 AM,32.0,10.4,41,29.81,10.0,SW,17.3,25.3,N/A,,Scattered Clouds,230,2013-11-15 18:55:00
12:15 PM,30.2,12.2,47,29.81,10.0,SSW,15.0,25.3,N/A,,Mostly Cloudy,200,2013-11-15 19:15:00
12:35 PM,30.2,14.0,51,29.80,7.0,SW,6.9,19.6,N/A,,Overcast,220,2013-11-15 19:35:00
12:55 PM,30.2,12.2,47,29.79,10.0,SW,9.2,20.7,N/A,,Overcast,230,2013-11-15 19:55:00
1:15 PM,32.0,14.0,48,29.77,10.0,SW,9.2,-,N/A,,Overcast,230,2013-11-15 20:15:00
1:35 PM,32.0,12.2,44,29.76,10.0,South,21.9,33.4,N/A,,Overcast,180,2013-11-15 20:35:00
1:55 PM,32.0,14.0,48,29.75,10.0,South,20.7,32.2,N/A,,Mostly Cloudy,180,2013-11-15 20:55:00
2:15 PM,30.2,14.0,51,29.75,10.0,South,13.8,20.7,N/A,,Mostly Cloudy,190,2013-11-15 21:15:00
2:35 PM,30.2,14.0,51,29.76,7.0,SW,15.0,23.0,N/A,,Overcast,220,2013-11-15 21:35:00
2:55 PM,28.4,17.6,64,29.75,1.5,SSW,11.5,23.0,N/A,Snow,Light Snow,200,2013-11-15 21:55:00
3:15 PM,28.4,15.8,59,29.73,10.0,South,15.0,21.9,N/A,,Mostly Cloudy,180,2013-11-15 22:15:00
3:35 PM,28.4,17.6,64,29.72,10.0,South,19.6,24.2,N/A,,Overcast,180,2013-11-15 22:35:00
3:55 PM,28.4,17.6,64,29.72,2.5,South,20.7,28.8,N/A,Snow,Light Snow,170,2013-11-15 22:55:00
4:15 PM,28.4,19.4,69,29.72,1.2,South,12.7,26.5,N/A,Snow,Light Snow,180,2013-11-15 23:15:00
4:35 PM,28.4,19.4,69,29.72,4.0,WSW,11.5,25.3,N/A,Snow,Light Snow,250,2013-11-15 23:35:00
4:55 PM,28.4,19.4,69,29.71,4.0,SSW,6.9,19.6,N/A,Snow,Light Snow,210,2013-11-15 23:55:00
5:15 PM,26.6,17.6,69,29.70,1.8,WSW,16.1,25.3,N/A,Snow,Light Snow,250,2013-11-16 00:15:00
5:35 PM,26.6,19.4,74,29.71,3.0,SW,11.5,21.9,N/A,Snow,Light Snow,230,2013-11-16 00:35:00
5:55 PM,26.6,19.4,74,29.71,0.8,WSW,20.7,32.2,N/A,Snow,Light Snow,240,2013-11-16 00:55:00
6:15 PM,26.6,17.6,69,29.70,1.2,SW,12.7,28.8,N/A,Snow,Light Snow,220,2013-11-16 01:15:00
6:35 PM,26.6,17.6,69,29.69,1.2,SW,16.1,32.2,N/A,Snow,Light Snow,230,2013-11-16 01:35:00
6:55 PM,26.6,15.8,64,29.69,5.0,WSW,18.4,27.6,N/A,,Haze,240,2013-11-16 01:55:00
7:15 PM,26.6,17.6,69,29.69,0.8,West,16.1,26.5,N/A,Snow,Light Snow,260,2013-11-16 02:15:00
7:35 PM,24.8,19.4,80,29.68,0.8,West,9.2,-,N/A,Snow,Light Snow,270,2013-11-16 02:35:00
7:55 PM,26.6,21.2,80,29.68,0.5,West,4.6,-,N/A,Snow,Snow,280,2013-11-16 02:55:00
8:15 PM,24.8,19.4,80,29.67,0.5,WSW,4.6,-,N/A,Snow,Snow,240,2013-11-16 03:15:00
8:35 PM,24.8,19.4,80,29.68,0.5,West,12.7,-,N/A,Snow,Snow,260,2013-11-16 03:35:00
8:55 PM,24.8,19.4,80,29.68,0.2,WSW,16.1,20.7,N/A,Snow,Snow,240,2013-11-16 03:55:00
9:15 PM,24.8,19.4,80,29.67,0.2,WSW,19.6,36.8,N/A,Snow,Snow,240,2013-11-16 04:15:00
9:35 PM,24.8,17.6,74,29.66,0.2,WSW,25.3,41.4,N/A,Snow,Snow,250,2013-11-16 04:35:00
9:55 PM,24.8,17.6,74,29.66,0.8,West,19.6,34.5,N/A,Snow,Light Snow,260,2013-11-16 04:55:00
10:15 PM,24.8,19.4,80,29.66,1.2,West,17.3,20.7,N/A,Snow,Light Snow,260,2013-11-16 05:15:00
10:35 PM,24.8,19.4,80,29.66,0.2,West,17.3,20.7,N/A,Snow,Snow,270,2013-11-16 05:35:00
10:55 PM,23.0,17.6,80,29.64,0.2,North,-9999.0,-,N/A,Snow,Snow,0,2013-11-16 05:55:00
11:15 PM,23.0,17.6,80,29.65,0.2,West,28.8,-,N/A,Snow,Heavy Snow,270,2013-11-16 06:15:00
11:35 PM,23.0,17.6,80,29.63,-9999.0,North,-9999.0,-,N/A,,Overcast,0,2013-11-16 06:35:00
11:55 PM,23.0,17.6,80,29.63,-9999.0,West,19.6,32.2,N/A,,Overcast,280,2013-11-16 06:55:00